Location: Puketoi
(40.5833°S, 176.0167°E)
Time: 13:48:06
(UTC+00:00)

Envisat - Pass Details

Date: 08 February 2023
Orbit: 763 x 765 km, 98.2° (Epoch: 23 March)

Event Time Altitude Azimuth Distance (km) Brightness Sun altitude
Exits shadow 16:24:42 15° 326° (NW) 2,008 4.6 -12.4°
Maximum altitude 16:28:04 28° 275° (W) 1,435 3.9 -11.8°
Drops below altitude 10° 16:32:25 10° 217° (SW) 2,330 5.4 -11.1°
Sets 16:35:05 0° 205° (SSW) 3,265 6.3 -10.7°
